Regional Weather Roundup
Issued by NWS Wilmington, NC

Home | Current Version | Previous Version | Text Only | Print | Product List | Glossary On
Versions: 1 2 3 4 5 6 7 8 9 10 11 12 13 14 15 16 17 18 19 20 21 22 23 24 25 26 27 28
000
ASUS42 KILM 240213
RWRILM
RWRILM
REGIONAL HOURLY WEATHER ROUNDUP
NATIONAL WEATHER SERVICE WILMINGTON NC
1000 PM EDT FRI JUN 23 2017

NOTE: "FAIR" INDICATES FEW OR NO CLOUDS BELOW 12,000 FEET WITH NO
SIGNIFICANT WEATHER AND/OR OBSTRUCTIONS TO VISIBILITY.

...............WFO WILMINGTON COUNTY WARNING AREA...............

......COASTAL NC AND SC COUNTIES......

CITY           SKY/WX    TMP DP  RH WIND       PRES   REMARKS
WILMINGTON     CLEAR     80  72  76 S15G22    29.96R
N MYRTLE BEACH PTCLDY    80  75  84 S20       29.97R
MYRTLE BEACH   CLEAR     81  73  78 S15G22    29.98R

......INLAND NC AND SC COUNTIES.......

CITY           SKY/WX    TMP DP  RH WIND       PRES   REMARKS
LUMBERTON      PTCLDY    82  78  88 S10       29.92R HX  91
ELIZABETHTOWN  NOT AVBL
WHITEVILLE     PTCLDY    80  75  84 S9G16     29.94R
FLORENCE       CLEAR     81  77  88 S10       29.94R
DARLINGTON     CLEAR     82  77  84 S12       29.93R HX  90
KINGSTREE      FAIR      79  73  83 S7        29.96R
HARTSVILLE     FAIR      79  73  83 S8G17     29.93R
BENNETTSVILLE  FAIR      84  77  79 S9G17     29.91R HX  94
CONWAY         FAIR      77  73  88 S8        29.97R
GEORGETOWN     FAIR      77  75  94 S10       29.99S
MARION         FAIR      79  73  83 S9        29.95R

....................REST OF NORTH CAROLINA......................

.........EASTERN NC.........

CITY           SKY/WX    TMP DP  RH WIND       PRES   REMARKS
CAPE HATTERAS  CLEAR     80  75  84 SW14G25   29.95R
JACKSONVILLE   CLEAR     79  71  76 S13       29.94R
MOREHEAD CITY  CLEAR     81  78  91 SW21G29   29.96R
KENANSVILLE    CLEAR     79  75  89 S3        29.92R
NEW BERN       CLEAR     79  72  79 SW12      29.95R
ELIZABETH CITY CLEAR     81  78  91 S15G24    29.87R

.........CENTRAL NC.........

CITY           SKY/WX    TMP DP  RH WIND       PRES   REMARKS
RALEIGH DURHAM PTCLDY    83  71  67 S13       29.86S
ROCKY MOUNT    CLEAR     83  73  72 S10       29.87R
ROANOKE RAPIDS NOT AVBL
FAYETTEVILLE   CLEAR     85  76  74 S14       29.90R HX  94
HOFFMAN        CLEAR     82  74  75 S13       29.90R

.........WESTERN NC.........

CITY           SKY/WX    TMP DP  RH WIND       PRES   REMARKS
CHARLOTTE      PTCLDY    82  70  66 S13       29.88S
GREENSBORO     MOCLDY    81  70  69 S16       29.83F
HICKORY        NOT AVBL
BOONE          NOT AVBL
ASHEVILLE      NOT AVBL

.....................REST OF SOUTH CAROLINA.....................

.........EASTERN SC.........

CITY           SKY/WX    TMP DP  RH WIND       PRES   REMARKS
CHARLESTON     CLOUDY    79  72  79 SW14      29.99R
BEAUFORT MCAS  CLOUDY    83  76  79 S9G16     29.99R HX  91
HILTON HEAD    CLEAR     82  75  78 VRB7G20   30.01R

.........CENTRAL SC.........

CITY           SKY/WX    TMP DP  RH WIND       PRES   REMARKS
COLUMBIA       PTCLDY    85  74  69 S13       29.92R HX  92
ORANGEBURG     CLEAR     80  75  84 S8        29.97R
SUMTER SHAW    CLEAR     81  75  82 S12       29.92R

.........WESTERN SC.........

CITY           SKY/WX    TMP DP  RH WIND       PRES   REMARKS
GREENVILLE     NOT AVBL
ROCK HILL      CLEAR     80  71  74 S10       29.90R
ANDERSON       CLEAR     82  72  71 S12       29.91R
CLEMSON        NOT AVBL
GREENWOOD      CLEAR     81  70  69 SW10      29.94R


...................COASTAL AND OFFSHORE REPORTS..................

................LOCAL PIERS AND NC RESERVE................


STATION/POSITION TIME  SKY/WX   TEMP    WIND        PRES    VSBY
                                AIR SEA DIR/SP/G
                 (UTC)          (F)     (DEG/KT/KT) (MB)    (MI)
JOHNY MRCER PIER 0148            80 80  210/ 19/ 22 1013.8R
NC RESRV MASNBRO 0045            80     250/  9     1015.0
OCEAN CREST PIER NOT AVBL
SPRINGMAID  PIER 0148                               1014.1R


................COASTAL AND OFFSHORE BUOYS................


STATION/POSITION TIME  SKY/WX   TEMP    WIND        PRES    VSBY
                                AIR SEA DIR/SP/G
                 (UTC)          (F)     (DEG/KT/KT) (MB)    (MI)
DIMNDSHOAL 41025 0150            81 80  220/ 21/ 25 1014.0R
WVE H/P(F/S)=  5/ 5 SWL H/P/D(F/S/D)=  2/130/ 8

CAPE LOOKOUT     0200            80     210/ 15/ 21 1014.5R
ONSLOW BAY 41036 NOT AVBL
ONSLOW BAY 41064 0108            80 81  220/ 17/ 23 1014.6R
ONSLOW BAY 41159 0143               81                N/A
WVE H/P(F/S)=  5/ 5 SWL H/P/D(F/S/D)=  2/140/11

MASNBO INL 41110 0159               79                N/A
WVE H/P(F/S)=  4/ 5

WILM HARBR 41108 NOT AVBL
27SE WRITB 41037 0108            79 80  210/ 17/ 23 1014.7R
FRYING PAN 41013 0200            82 81  210/ 19/ 25 1015.6
SUNST NRSH 41024 0108            79 79  220/ 14/ 19 1014.3R
CAPRS NRSH 41029 0108            86 83  210/ 19/ 25 1014.5R
EDISTO     41004 0200            81 81  190/ 19/ 23 1015.5


..........OFFSHORE BUOYS BEYOND 100 NM OFFSHORE...........
.....IN A TRIANGLE---HAT TO BERMUDA TO BAHAMAS TO HAT.....


STATION/POSITION TIME  SKY/WX   TEMP    WIND        PRES    VSBY
                                AIR SEA DIR/SP/G
                 (UTC)          (F)     (DEG/KT/KT) (MB)    (MI)
150E HAT   41001 0200            80 79  210/ 16/ 19 1016.9
W BERMUDA  41048 0200            80 81  230/ 10/ 12 1020.3
ATLANTIC S 41049 0150            80 82   60/ 10/ 12 1021.9R
WVE H/P(F/S)=  3/ 8 SWL H/P/D(F/S/D)=  3/100/ 8

E BAHAMAS  41046 0200            82 83   90/ 14/ 17 1019.4
NE BAHAMAS 41047 0200            81 83  120/ 10/ 12 1020.8
120E CANVRL41010 0200            82 83  150/ 12/ 14 1018.0

END




USA.gov is the U.S. government's official web portal to all federal, state and local government web resources and services.